Weather History for Alva, OK

Change the Weather History Date:

Monday, July 7, 2014

  Actual Average Record
Temperature  
Mean Temperature 90 °F -  
Max Temperature 104 °F 97 °F 108 °F (1964)
Min Temperature 75 °F 70 °F 59 °F (1967)
Cooling Degree Days 24    
Growing Degree Days 40 (Base 50)    
Moisture  
Dew Point 61 °F    
Average Humidity 43    
Maximum Humidity 69    
Minimum Humidity 20    
Precipitation  
Precipitation 0.00 in - - ()
Sea Level Pressure  
Sea Level Pressure 29.87 in    
Wind  
Wind Speed 13 mph (SW)    
Max Wind Speed 20 mph    
Max Gust Speed 28 mph    
Visibility 10 miles    
Events      
Averages and records for this station are not official NWS values.
T = Trace of Precipitation, MM = Missing Value Source: NWS Daily Summary

Daily Weather History Graph

Daily Weather History Graph

Search for Another Location

Airport:

Trip Planner

Search our weather history database for the weather conditions in past years. The results will help you decide how hot, cold, wet, or windy it might be!

Date:

Astronomy

Jul. 07, 2014 Rise Set
Actual Time 6:22 AM CDT 8:56 PM CDT
Civil Twilight 5:52 AM CDT 9:26 PM CDT
Nautical Twilight 5:14 AM CDT 10:04 PM CDT
Astronomical Twilight 4:32 AM CDT 10:46 PM CDT
Moon 4:04 PM CDT (7/7) 2:12 AM CDT (7/7)
Length of Visible Light 15h 34m
Length of Day
14h 34m
Waxing Gibbous, 72% of the Moon is Illuminated
Jul 7
Waxing Gibbous
Jul 12
Full
Jul 18
Last Quarter
Jul 26
New
Aug 3
First Quarter

Hourly Weather History & Observations

Time (CDT) Temp. Heat Index Dew Point Humidity Pressure Visibility Wind Dir Wind Speed Gust Speed Precip Events Conditions
12:10 AM 75.2 °F - 64.4 °F 69% 29.91 in 10.0 mi SSW 9.2 mph - N/A   Clear
12:30 AM 77.0 °F - 60.8 °F 57% 29.91 in 10.0 mi SSW 11.5 mph - N/A   Clear
12:50 AM 80.6 °F 81.5 °F 60.8 °F 51% 29.91 in 10.0 mi SW 11.5 mph - N/A   Clear
1:10 AM 80.6 °F 81.8 °F 62.6 °F 54% 29.91 in 10.0 mi SSW 11.5 mph - N/A   Clear
1:30 AM 80.6 °F 81.8 °F 62.6 °F 54% 29.91 in 10.0 mi SSW 12.7 mph - N/A   Clear
1:50 AM 80.6 °F 81.8 °F 62.6 °F 54% 29.91 in 9.0 mi SW 12.7 mph - N/A   Clear
2:10 AM 80.6 °F 81.8 °F 62.6 °F 54% 29.91 in 10.0 mi SW 12.7 mph - N/A   Clear
2:30 AM 80.6 °F 81.8 °F 62.6 °F 54% 29.90 in 10.0 mi SW 13.8 mph 20.7 mph N/A   Clear
2:50 AM 80.6 °F 81.8 °F 62.6 °F 54% 29.90 in 9.0 mi SW 15.0 mph - N/A   Clear
3:10 AM 78.8 °F - 64.4 °F 61% 29.90 in 9.0 mi SW 13.8 mph - N/A   Clear
3:30 AM 78.8 °F - 64.4 °F 61% 29.90 in 8.0 mi SW 11.5 mph - N/A   Clear
3:50 AM 78.8 °F - 64.4 °F 61% 29.90 in 10.0 mi SW 12.7 mph - N/A   Clear
4:10 AM 77.0 °F - 64.4 °F 65% 29.90 in 10.0 mi SW 12.7 mph 18.4 mph N/A   Clear
4:30 AM 77.0 °F - 64.4 °F 65% 29.90 in 9.0 mi SW 13.8 mph - N/A   Clear
4:50 AM 77.0 °F - 64.4 °F 65% 29.89 in 10.0 mi SW 12.7 mph 19.6 mph N/A   Clear
5:15 AM 77.0 °F - 64.4 °F 65% 29.89 in 10.0 mi SW 12.7 mph - N/A   Clear
5:30 AM 75.2 °F - 64.4 °F 69% 29.89 in 10.0 mi SW 10.4 mph - N/A   Clear
5:50 AM 75.2 °F - 64.4 °F 69% 29.89 in 10.0 mi SW 11.5 mph - N/A   Clear
6:10 AM 75.2 °F - 64.4 °F 69% 29.89 in 10.0 mi SW 9.2 mph - N/A   Clear
6:30 AM 75.2 °F - 64.4 °F 69% 29.89 in 10.0 mi SW 11.5 mph - N/A   Clear
6:50 AM 75.2 °F - 64.4 °F 69% 29.89 in 10.0 mi SW 10.4 mph - N/A   Clear
7:10 AM 75.2 °F - 64.4 °F 69% 29.90 in 10.0 mi SW 10.4 mph - N/A   Clear
7:30 AM 77.0 °F - 64.4 °F 65% 29.90 in 10.0 mi SW 9.2 mph - N/A   Clear
7:50 AM 78.8 °F - 64.4 °F 61% 29.90 in 9.0 mi SW 9.2 mph - N/A   Clear
8:10 AM 80.6 °F 82.3 °F 64.4 °F 58% 29.90 in 10.0 mi SW 12.7 mph - N/A   Clear
8:30 AM 82.4 °F 83.9 °F 64.4 °F 54% 29.90 in 10.0 mi SW 13.8 mph - N/A   Clear
8:50 AM 82.4 °F 83.9 °F 64.4 °F 54% 29.90 in 10.0 mi SW 13.8 mph 19.6 mph N/A   Clear
9:10 AM 84.2 °F 85.0 °F 62.6 °F 48% 29.90 in 10.0 mi SW 12.7 mph - N/A   Clear
9:30 AM 86.0 °F 87.3 °F 64.4 °F 48% 29.90 in 10.0 mi SW 12.7 mph - N/A   Clear
9:50 AM 87.8 °F 88.5 °F 62.6 °F 43% 29.89 in 10.0 mi SW 15.0 mph - N/A   Clear
10:10 AM 89.6 °F 90.1 °F 62.6 °F 40% 29.89 in 10.0 mi WSW 15.0 mph - N/A   Clear
10:30 AM 91.4 °F 92.1 °F 62.6 °F 38% 29.89 in 10.0 mi SW 12.7 mph - N/A   Clear
10:50 AM 91.4 °F 92.1 °F 62.6 °F 38% 29.90 in 10.0 mi West 11.5 mph - N/A   Clear
11:10 AM 93.2 °F 94.1 °F 62.6 °F 36% 29.89 in 10.0 mi WSW 12.7 mph - N/A   Clear
11:35 AM 95.0 °F 96.0 °F 62.6 °F 34% 29.89 in 10.0 mi WSW 10.4 mph - N/A   Clear
11:50 AM 96.8 °F 98.0 °F 62.6 °F 32% 29.89 in 10.0 mi WSW 11.5 mph 16.1 mph N/A   Clear
12:10 PM 96.8 °F 98.0 °F 62.6 °F 32% 29.89 in 10.0 mi SW 10.4 mph - N/A   Clear
12:30 PM 96.8 °F 99.0 °F 64.4 °F 34% 29.89 in 10.0 mi WSW 12.7 mph 18.4 mph N/A   Clear
1:10 PM 98.6 °F 101.0 °F 64.4 °F 32% 29.87 in 10.0 mi SW 13.8 mph 21.9 mph N/A   Clear
1:35 PM 100.4 °F 102.4 °F 62.6 °F 29% 29.87 in 10.0 mi SW 18.4 mph 24.2 mph N/A   Clear
1:55 PM 100.4 °F 101.3 °F 60.8 °F 27% 29.87 in 10.0 mi SW 16.1 mph 23.0 mph N/A   Clear
2:10 PM 102.2 °F 104.2 °F 62.6 °F 27% 29.87 in 10.0 mi SW 15.0 mph 19.6 mph N/A   Clear
2:30 PM 102.2 °F 103.6 °F 60.8 °F 26% 29.86 in 10.0 mi SW 17.3 mph 20.7 mph N/A   Clear
2:50 PM 102.2 °F 102.4 °F 59.0 °F 24% 29.86 in 10.0 mi SW 13.8 mph 21.9 mph N/A   Clear
3:10 PM 102.2 °F 102.4 °F 59.0 °F 24% 29.85 in 10.0 mi SSW 17.3 mph 24.2 mph N/A   Clear
3:30 PM 102.2 °F 101.4 °F 57.2 °F 22% 29.85 in 10.0 mi SW 19.6 mph 24.2 mph N/A   Clear
3:55 PM 102.2 °F 100.9 °F 55.4 °F 21% 29.84 in 10.0 mi SW 18.4 mph 25.3 mph N/A   Clear
4:10 PM 104.0 °F 102.9 °F 55.4 °F 20% 29.84 in 10.0 mi WSW 19.6 mph 25.3 mph N/A   Clear
4:30 PM 104.0 °F 103.4 °F 57.2 °F 21% 29.83 in 10.0 mi SW 18.4 mph 23.0 mph N/A   Clear
4:50 PM 104.0 °F 102.9 °F 55.4 °F 20% 29.82 in 10.0 mi SW 18.4 mph 26.5 mph N/A   Clear
5:10 PM 104.0 °F 102.9 °F 55.4 °F 20% 29.82 in 10.0 mi SW 18.4 mph 27.6 mph N/A   Clear
5:30 PM 102.2 °F 100.9 °F 55.4 °F 21% 29.82 in 10.0 mi SW 17.3 mph 24.2 mph N/A   Clear
5:55 PM 102.2 °F 100.9 °F 55.4 °F 21% 29.81 in 10.0 mi SSW 18.4 mph 27.6 mph N/A   Clear
6:10 PM 102.2 °F 100.4 °F 53.6 °F 20% 29.81 in 10.0 mi SW 19.6 mph 26.5 mph N/A   Clear
6:35 PM 102.2 °F 100.9 °F 55.4 °F 21% 29.80 in 10.0 mi SSW 15.0 mph 24.2 mph N/A   Clear
6:55 PM 100.4 °F 98.8 °F 55.4 °F 22% 29.79 in 10.0 mi SSW 15.0 mph 24.2 mph N/A   Clear
7:10 PM 100.4 °F 99.7 °F 57.2 °F 24% 29.79 in 10.0 mi SSW 17.3 mph 23.0 mph N/A   Clear
7:35 PM 98.6 °F 97.6 °F 57.2 °F 25% 29.79 in 10.0 mi SSW 15.0 mph 24.2 mph N/A   Clear
7:50 PM 98.6 °F 98.5 °F 59.0 °F 27% 29.79 in 10.0 mi South 16.1 mph 20.7 mph N/A   Clear
8:10 PM 95.0 °F 93.7 °F 57.2 °F 28% 29.80 in 10.0 mi South 11.5 mph - N/A   Clear
8:30 PM 91.4 °F 90.7 °F 59.0 °F 34% 29.81 in 10.0 mi South 9.2 mph - N/A   Clear
8:50 PM 89.6 °F 89.5 °F 60.8 °F 38% 29.81 in 10.0 mi South 10.4 mph - N/A   Clear
9:10 PM 87.8 °F 87.6 °F 60.8 °F 40% 29.81 in 10.0 mi SSW 10.4 mph - N/A   Clear
9:50 PM 86.0 °F 85.4 °F 59.0 °F 40% 29.84 in 10.0 mi SSW 12.7 mph - N/A   Clear
10:10 PM 86.0 °F 85.4 °F 59.0 °F 40% 29.84 in 10.0 mi SSW 11.5 mph - N/A   Clear
10:35 PM 86.0 °F 85.4 °F 59.0 °F 40% 29.84 in 10.0 mi SSW 11.5 mph - N/A   Clear
10:50 PM 84.2 °F 83.8 °F 59.0 °F 42% 29.84 in 10.0 mi SSW 15.0 mph - N/A   Clear
11:10 PM 84.2 °F 83.8 °F 59.0 °F 42% 29.85 in 10.0 mi SW 11.5 mph - N/A   Clear
11:30 PM 84.2 °F 83.8 °F 59.0 °F 42% 29.85 in 10.0 mi SW 10.4 mph - N/A   Clear